EXPRESS AMU1

导读 | 星芒AI

EXPRESS AMU1 是俄罗斯制造的一颗通信卫星,由 Ekspress Spetsialnykh Svyazi 公司运营。该卫星于2016年11月23日由质子-M火箭从拜科努尔航天发射场发射升空。它定位在东经40度的轨道位置,主要用于提供广播、电视和数据传输服务,覆盖俄罗斯及周边地区。卫星搭载了多个C波段和Ku波段转发器,具有高容量和灵活性,旨在增强俄罗斯的通信基础设施。

基本信息
目录编号:
41191
目录名称:
EXPRESS AMU1
国际标识:
2015-082A
轨道中心:
EARTH
卫星名称:
EXPRESS AMU1
卫星全名:
--
卫星状态:
在轨 (已飞行3601 天)
发射日期:
2015-12-24 UTC
国别 :
俄罗斯(独联体) (CIS)
星等 :
--
轨道信息
数据来源 国际轨道数据 AOE轨道数据
星历时间 2025-11-01T22:49:30+0800
19小时前
查看轨道信息
2025-11-01T04:00:00+0800
1天前
查看轨道信息
半长轴 42164.728km 42164.504km
偏心率 0.0003152 0.000309
轨道倾角 0.010° 0.011°
近地点辐角 351.285° 356.828°
升交点赤经 245.615° 238.727°
平近点角 62.718° 140.916°
近地点 35773.302km 35773.34km
远地点 35799.884km 35799.398km
周期 1436.097分钟 1436.085分钟
每日圈数 1.002718 1.002726
详细信息
使用方式:
暂无
2D轨道图
3D轨道图
轨道高度分析图
轨道倾角分析图
轨道综合分析图
查看轨道综合分析图